COSMOS 1414 (GLONASS)

Satellite information

Favourite Embed

Satellite Type and Status

PAYLOADIN ORBIT

Key statistics

Satellite COSMOS 1414 (GLONASS) at a glance.

Uptime

15549

Days in orbit

Revolutions

≈ 2.1

Per day

Orbit

MEO

Medium Earth Orbit

Inclination

64.6

Latest

Satellite identification and parameters

Extended collection of information and parameters for COSMOS 1414 (GLONASS).

Object identification

Identified? True

Debris? False

Object name: COSMOS 1414 (GLONASS)

International designator: 1982-100D

Object number (NORAD): 13606

Object ID (CCSDS): 13606

Country: COMMONWEALTH OF INDEPENDENT STATES (CIS)

Current information (Y/N): Y

RCS size: LARGE

Orbital parameters

Period: 675.727 minutes

Inclination: 64.5606 deg

SMA: 25507.88 km

Apoapsis: 19328.985 km

Periapsis: 18930.506 km

RAAN: 85.265 deg

Eccentricy: 0.0078109

Argument of periapsis: 31.2815 deg

Mean anomaly: 146.4273 deg

Mean motion: 2.13103809 rev/day

Mean motion (dot): 0.00000024 rev/day2

B* drag term: 0.0 1/REarth

Two-line elements (TLE)

Creation date: May 5, 2025, 2:11 a.m.

Reference frame: TEME

Reference center: EARTH

Epoch: May 4, 2025, 6:24 p.m. UTC

TLE line 0: 0 COSMOS 1414 (GLONASS)

TLE line 1: 1 13606U 82100D 25124.76712772 .00000024 00000-0 00000-0 0 9996

TLE line 2: 2 13606 64.5606 85.2650 0078109 31.2815 146.4273 2.13103809331197

Live tracking on map

Real-time ground track for satellite COSMOS 1414 (GLONASS).

In-orbit conjunctions

There are no conjunctions computed for COSMOS 1414 (GLONASS), at the moment. Check back to stay up to date, as we update our databases every day.

Go to all conjunctions

Associated space launch

GLONASS navigation satellite

COSMOS 1414 (GLONASS) was lifted into orbit during the mission ‘Proton | Uragan 1’, on board a Proton space rocket.

The launch took place on Oct. 12, 1982, 2:56 p.m. from 200/39 (200L).

For more information about the launch, click the button.

Launch to space Proton | Uragan 1
Proton | Uragan 1

Agency: N/A

Status: Launch Successful

Launch date: Oct. 12, 1982, 2:56 p.m. UTC

Rocket: Proton

Launch pad: 200/39 (200L)

Location: Baikonur Cosmodrome, Republic of Kazakhstan

...

Latest news about this satellite

There are no fresh news available about this satellite. Check back as we update our databases every day.


Newsletter sign-up

Weekly statistics, charts and insights to help you stay on top of the space industry.